Weather History for KWLD - October, 2013

Change the Weather History Date:

Thursday, October 24, 2013

  Actual Average Record
Temperature  
Mean Temperature 48 °F -  
Max Temperature 55 °F 66 °F 84 °F (2012)
Min Temperature 41 °F 46 °F 30 °F (2005)
Degree Days  
Heating Degree Days 17    
Moisture  
Dew Point 34 °F    
Average Humidity 62    
Maximum Humidity 86    
Minimum Humidity 38    
Precipitation  
Precipitation 0.00 in - - ()
Sea Level Pressure  
Sea Level Pressure 30.33 in    
Wind  
Wind Speed 10 mph (NE)    
Max Wind Speed 17 mph    
Max Gust Speed 25 mph    
Visibility 10 miles    
Events      
Averages and records for this station are not official NWS values.
T = Trace of Precipitation, MM = Missing Value Source: NWS Daily Summary

Daily Weather History Graph

Daily Weather History Graph

Search for Another Location

Airport or City:

Trip Planner

Search our weather history database for the weather conditions in past years. The results will help you decide how hot, cold, wet, or windy it might be!

Date:

Astronomy

Oct. 24, 2013 Rise Set
Actual Time 7:44 AM CDT 6:39 PM CDT
Civil Twilight 7:18 AM CDT 7:05 PM CDT
Nautical Twilight 6:47 AM CDT 7:36 PM CDT
Astronomical Twilight 6:17 AM CDT 8:06 PM CDT
Moon 11:07 PM CDT (10/24) 12:43 PM CDT (10/24)
Length of Visible Light 11h 47m
Length of Day
10h 54m
Waning Gibbous, 71% of the Moon is Illuminated
Oct 24
Waning Gibbous
Oct 26
Last Quarter
Nov 3
New
Nov 9
First Quarter
Nov 17
Full

Hourly Weather History & Observations

Time (CDT) Temp. Windchill Dew Point Humidity Pressure Visibility Wind Dir Wind Speed Gust Speed Precip Events Conditions
12:54 AM 50.0 °F - 44.1 °F 80% 30.12 in - NNE 10.4 mph - N/A   Clear
1:54 AM 48.0 °F - 44.1 °F 86% 30.14 in 10.0 mi North 9.2 mph - N/A   Clear
2:54 AM 46.9 °F - 41.0 °F 80% 30.18 in 10.0 mi NNE 16.1 mph 23.0 mph N/A   Clear
3:54 AM 45.0 °F 38.9 °F 39.0 °F 80% 30.21 in 10.0 mi North 12.7 mph - N/A   Clear
4:54 AM 43.0 °F 37.7 °F 37.9 °F 82% 30.23 in 10.0 mi NNE 9.2 mph - N/A   Clear
5:54 AM 42.1 °F 35.7 °F 37.0 °F 82% 30.26 in - NNE 11.5 mph - N/A   Clear
6:54 AM 41.0 °F 34.3 °F 35.1 °F 79% 30.30 in 10.0 mi NNE 11.5 mph - N/A   Clear
7:54 AM 41.0 °F 34.7 °F 34.0 °F 76% 30.32 in 10.0 mi NE 10.4 mph - N/A   Clear
8:54 AM 43.0 °F 37.7 °F 34.0 °F 71% 30.36 in 10.0 mi NE 9.2 mph - N/A   Clear
9:54 AM 46.0 °F 40.6 °F 34.0 °F 63% 30.40 in 10.0 mi NE 11.5 mph 23.0 mph N/A   Clear
10:54 AM 48.9 °F - 32.0 °F 52% 30.41 in 10.0 mi NNE 16.1 mph 20.7 mph N/A   Clear
11:54 AM 51.1 °F - 33.1 °F 50% 30.42 in 10.0 mi NE 11.5 mph - N/A   Clear
12:54 PM 53.1 °F - 33.1 °F 47% 30.39 in 10.0 mi NNE 17.3 mph 25.3 mph N/A   Clear
1:54 PM 54.0 °F - 32.0 °F 43% 30.38 in 10.0 mi NE 11.5 mph - N/A   Clear
3:54 PM 55.9 °F - 30.9 °F 39% 30.36 in 10.0 mi North 10.4 mph 18.4 mph N/A   Clear
4:54 PM 55.0 °F - 30.9 °F 40% 30.35 in 10.0 mi NNE 11.5 mph - N/A   Clear
5:54 PM 53.1 °F - 28.0 °F 38% 30.35 in 10.0 mi East 6.9 mph - N/A   Clear
6:54 PM 50.0 °F - 28.9 °F 44% 30.37 in 10.0 mi ENE 5.8 mph - N/A   Clear
7:54 PM 48.0 °F - 30.0 °F 50% 30.39 in 10.0 mi ENE 3.5 mph - N/A   Clear
8:54 PM 45.0 °F 42.6 °F 30.9 °F 58% 30.41 in 10.0 mi East 4.6 mph - N/A   Clear
9:54 PM 43.0 °F 39.5 °F 30.0 °F 60% 30.42 in 10.0 mi ENE 5.8 mph - N/A   Clear
10:54 PM 42.1 °F 39.2 °F 28.9 °F 60% 30.44 in 10.0 mi East 4.6 mph - N/A   Clear
11:54 PM 41.0 °F - 28.9 °F 62% 30.45 in 10.0 mi Calm Calm - N/A   Clear